Tracking 17925 objects as of 19-February-2017
HD Live streaming from Space Station
objects crossing your sky now

H-1 R/B(1)

Track H-1 R/B(1) now!
10-day predictions


NORAD ID: 20230
Int'l Code: 1989-070B
Perigee: 191.7 km
Apogee: 5,442.2 km
Inclination: 28.2 °
Period: 146.1 minutes
Semi major axis: 9187 km
RCS: 2.9914 m2 (large)
Launch date: September 5, 1989
Source: Japan (JPN)
Launch site: TANEGASHIMA SPACE CENTER (TNSTA)

Note: This is a ROCKET BODY
Your satellite tracking list
Your tracking list is empty





NASA's NSSDC Master Catalog

Two Line Element Set (TLE):
1 20230U 89070B   17050.48464041  .00164670 -13764-5  73332-3 0  9997
2 20230  28.2201 302.5198 2857263 211.3127 128.0683  9.85762868498875
Source of the keplerian elements: AFSPC